Regional Weather Roundup
Issued by NWS

Home | Current Version | Previous Version | Text Only | Print | Product List | Glossary On
Versions: 1 2 3 4 5 6 7 8 9 10 11 12 13 14 15 16 17 18 19 20 21 22 23 24 25 26 27
000
ASUS45 KBOU 240207
RWRCO

WEATHER ROUNDUP FOR COLORADO
NATIONAL WEATHER SERVICE DENVER/BOULDER CO
800 PM MDT WED AUG 23 2017

NOTE: "FAIR" INDICATES FEW OR NO CLOUDS BELOW 12000 FEET WITH NO
SIGNIFICANT WEATHER AND/OR OBSTRUCTIONS TO VISIBILITY.

COZ001>005-013-030-031-240300-
...NORTHWEST COLORADO...

CITY           SKY/WX    TMP DP  RH WIND       PRES   REMARKS
CRAIG          FAIR      61  48  62 CALM      30.22S
HAYDEN         FAIR      65  45  48 SE7       30.25S
MEEKER         FAIR      71  45  39 N15       30.19R
RABBIT EARS PA FAIR      50  41  71 NE8       30.53S
STEAMBOAT SPGS FAIR      64  44  49 CALM      30.26S
WALDEN         FAIR      54  43  66 N9        30.38F
$$

COZ006>008-011-240300-
...WEST CENTRAL VALLEYS...

CITY           SKY/WX    TMP DP  RH WIND       PRES   REMARKS
GRAND JUNCTION FAIR      83  30  14 N7        30.02S
MONTROSE       FAIR      78  45  30 CALM      30.12S
EAGLE          FAIR      73  42  32 E8        30.22R
RIFLE          FAIR      80  43  26 S6        30.09S
DELTA          FAIR      86  28  12 NW7       30.06S
NUCLA          FAIR      81  32  17 CALM      30.15S
$$

COZ017>023-064>068-240300-
...SOUTHWEST COLORADO...

CITY           SKY/WX    TMP DP  RH WIND       PRES   REMARKS
DURANGO        FAIR      75  34  22 W7        30.17F
CORTEZ         FAIR      81  38  21 S6        30.11S
PAGOSA SPRINGS FAIR      72  34  25 CALM      30.26S
TELLURIDE      FAIR      67  32  26 W3        30.40S
WOLF CREEK PAS NOT AVBL
$$

COZ009-010-012-014-032>034-037-058>063-240300-
...CENTRAL COLORADO...

CITY           SKY/WX    TMP DP  RH WIND       PRES   REMARKS
ASPEN          FAIR      63  43  48 S8        30.28R
BUENA VISTA    FAIR      63  44  49 NE3       30.33R
COPPER MTN     CLOUDY    50  37  62 CALM      30.63R
BERTHOUD PASS  FAIR      37  34  87 NW16      30.64F
COTTONWOOD PAS FAIR      59  37  44 SE7       30.47R
GUNNISON       FAIR      68  35  29 N10       30.26R
KREMMLING      FAIR      64  45  48 SE10      30.32S
LEADVILLE      LGT RAIN  55  41  59 N5        30.45R
MONARCH PASS   FAIR      46  37  71 E18       30.69F
SALIDA         FAIR      69  43  39 NW6       30.36R
SUNLIGHT       FAIR      54  34  47 NW3       30.55R
WILKERSON PASS FAIR      50  34  53 NE6       30.60R
$$

COZ069>075-240300-
...SAN LUIS VALLEY/SANGRE DE CRISTO MOUNTAINS...

CITY           SKY/WX    TMP DP  RH WIND       PRES   REMARKS
ALAMOSA        FAIR      67  46  47 S6        30.22S
DEL NORTE      MOCLDY    67  48  49 N3        30.26S
LA VETA PASS   NOT AVBL
SAGUACHE         N/A    N/A N/A N/A MISG        N/A
$$

COZ035-036-038>040-240300-
...NORTHERN COLORADO FRONT RANGE...

CITY           SKY/WX    TMP DP  RH WIND       PRES   REMARKS
DENVER INTL AP MOCLDY    73  46  38 NW15      30.14F
DMNS CITY PARK   N/A     71  44  37 N6G15     30.15S
AURORA         MOCLDY    71  46  40 NW10      30.18R
FRONT RANGE AP MOCLDY    73  45  35 W7        30.17S
ERIE MUNI ARPT FAIR      67  50  54 SW6       30.16F
BOULDER MUN AP MOCLDY    70  46  43 SW9       30.13F
CENTENNIAL     MOCLDY    71  45  39 NW12G18   30.18S
BROOMFIELD     MOCLDY    72  45  37 W20G25    30.15F
FORT COLLINS   FAIR      74  48  39 SW9       30.11F
LONGMONT       FAIR      72  47  40 NW6       30.14F
$$

COZ041-046-047-076>085-087-088-240300-
...PIKES PEAK/PALMER DIVIDE AND SOUTHERN FOOTHILLS...

CITY           SKY/WX    TMP DP  RH WIND       PRES   REMARKS
COLO. SPRINGS  MOCLDY    69  49  48 NW10      30.20S
A. F. ACADEMY  CLOUDY    62  54  74 N8        30.22S
SCHRIEVER AFB  MOCLDY    67  46  46 W10       30.19F
CHEYENNE MTN   MOCLDY    68  40  36 NW8       30.19F
ELLICOTT       FAIR     N/A N/A N/A NE5       30.17F
FALCON         CLOUDY    65  46  51 W12       30.25R
FORT CARSON    FAIR      66  47  51 NW9       30.16F
LIMON          MOCLDY    71  51  49 NE5       30.16R
MONUMENT HILL  FAIR      59  50  72 W6        30.28R
CANON CITY     CLEAR     75  54  46 W5        30.13R
WALSENBURG     CLOUDY    59  54  82 NE14G30   30.19R
TRINIDAD       FAIR      73  55  53 W7        30.11S
$$

COZ042>045-048>051-090-091-240300-
...NORTHEAST COLORADO...

CITY           SKY/WX    TMP DP  RH WIND       PRES   REMARKS
GREELEY ARPT   FAIR      74  49  41 W10       30.10R
AKRON          FAIR      77  44  30 S16       30.08R
BURLINGTON     FAIR      70  58  65 S9        30.08R
WRAY           FAIR      77  55  47 SE6       30.02R
YUMA           FAIR      72  41  33 SE5       30.03R
STERLING       NOT AVBL
HOLYOKE        FAIR      73  63  68 SE3       30.02R
FORT MORGAN    FAIR      75  44  32 S12       30.10R
$$

COZ086-089-092>099-240300-
...SOUTHEAST COLORADO...

CITY           SKY/WX    TMP DP  RH WIND       PRES   REMARKS
PUEBLO         FAIR      80  46  30 N12       30.06R
LA JUNTA       FAIR      78  60  53 SE10      30.04R
LAMAR          FAIR      73  59  61 SE8       30.02R
SPRINGFIELD      N/A     69  63  81 S15       30.10R
$$




USA.gov is the U.S. government's official web portal to all federal, state and local government web resources and services.